Other Public Products
Issued by NWS Charleston, SC

Current Version | Previous Version | Graphics & Text | Print | Product List | Glossary On
Versions: 1 2 3 4 5 6 7 8 9 10 11 12 13 14 15 16 17 18 19 20 21 22 23 24 25 26 27 28 29 30 31 32 33 34 35 36 37 38 39 40 41 42 43 44 45 46 47 48 49 50
000
FPUS82 KCHS 210427
OPUCHS

TEST...KCHS/KSAV Gateway Observations...TEST
National Weather Service Charleston SC
1100 PM EST MON FEB 20 2017

NOTE: "fair" indicates few or no clouds below 12,000 feet with no
significant weather and/or obstructions to visibility.

SCZ050-WAZ558-NCZ071-TXZ119-213-PAZ071-DCZ001-FLZ074-172-MI076-
NYZ176-178-MAZ016-IL014-TNZ027-NJZ106-GAZ044-MD014-210500-
...Gateway Observations for Charleston International...

CITY           SKY/WX    TMP DP  RH WIND       PRES   REMARKS
Chas Airport   MOCLDY    57  53  86 E3        30.17F
Seattle        CLOUDY    44  42  93 SE6       29.72R
Charlotte      CLOUDY    59  42  53 SE7       30.20S
Dallas DFW     CLEAR     58  55  90 S7        29.90F
Dallas Love    CLEAR     60  56  86 S9        29.92F
Philladelphia  PTCLDY    44  12  27 NE10      30.35R
Wash National  PTCLDY    50  30  46 NE8       30.30R
Baltimore      PTCLDY    48  27  44 NE7       30.31R
Miami          CLEAR     70  59  68 NE10      30.10S
Detroit        CLOUDY    38  29  70 E6        30.15F WCI  33
Newark         PTCLDY    38  17  42 N14       30.36R WCI  30
Laguardia      PTCLDY    42  14  32 N13       30.35R
J F K          PTCLDY    40  15  36 N10       30.36R WCI  33
Boston Logan   CLEAR     35  15  44 NW10      30.36R WCI  27
Ft. Lauderdale CLEAR     72  59  63 E8        30.09F
Chicago O`Hare CLOUDY    60  45  57 S16       29.91F
Chicago Midway CLOUDY    61  44  53 S14       29.92F
Houston Bush   PTCLDY    60  59  96 S3        30.00S FOG
Houston Hobby  PTCLDY    59  58  96 S5        29.99F FOG
Nashville      CLOUDY    62  43  49 SE8       30.04F
Atlanta        CLOUDY    62  45  53 E6        30.13S

$$

GAZ044-118-TXZ119-213-NCZ071-DCZ001-MDZ014-506-PAZ021-071-NJZ106-
NYZ176-178-MAZ106-OHZ011-021-055-MIZ076-KYZ091-ILZ014-INZ047-
MNZ060-210500-
...Gateway Observations for Savannah International...

CITY           SKY/WX    TMP DP  RH WIND       PRES   REMARKS
Savannah Arpt  CLOUDY    59  55  87 SE3       30.16S
Atlanta        CLOUDY    62  45  53 E6        30.13S
Charlotte      CLOUDY    59  42  53 SE7       30.20S
Dallas DFW     CLEAR     58  55  90 S7        29.90F
Houston Bush   PTCLDY    60  59  96 S3        30.00S FOG
Wash National  PTCLDY    50  30  46 NE8       30.30R
Wash Dulles    CLOUDY    46  28  49 CALM      30.30R
Baltimore      PTCLDY    48  27  44 NE7       30.31R
Philadelphia   PTCLDY    44  12  27 NE10      30.35R
Newark         PTCLDY    38  17  42 N14       30.36R WCI  30
Laguardia      PTCLDY    42  14  32 N13       30.35R
J F K          PTCLDY    40  15  36 N10       30.36R WCI  33
Boston         CLEAR     35  15  44 NW10      30.36R WCI  27
Pittsburg      CLOUDY    48  31  51 E6        30.17F
Akron          CLOUDY    50  28  42 SE6       30.14F
Cleveland      CLOUDY    45  32  60 CALM      30.16F
Cincinnati     CLOUDY    55  40  56 SE9       30.07F
Columbus       PTCLDY    48  42  80 E5        30.10F
Detroit        CLOUDY    38  29  70 E6        30.15F WCI  33
Chicago O`Hare CLOUDY    60  45  57 S16       29.91F
Minneapolis    CLOUDY    45  41  86 NW14G24   29.77R
Indianapolis   CLOUDY    56  47  71 SE10      30.03F

$$




USA.gov is the U.S. government's official web portal to all federal, state and local government web resources and services.